默认 日期 大小 文件数 浏览量 最新下载 xml
mpeg 2磁力链接相关资源由用户搜索指令自动获取,结果来源于网络,本站不存储任何资料,亦不承担任何责任,请于24小时内删除,搜索到1255个磁力,用时25ms。
    {"MD5.txt": 119, "20,000.Leagues.Under.the.Sea.1997.1080i.Blu-Ray.MPEG-2.DTS-HD.MA.2[email protected]": 23195222016}
创建时间: 2022-12-09 17:25:41 大小:21.6 GB 文件数量:2 热度:13 最近下载:2025-08-01 19:20:08
    {"DISC_4.ISO": 38749339648, "CCTV:千年菩提路.Road.of.Millennia.Bodhi.1080i.Blu-ray.MPEG-2.DD5.1.txt": 0}
创建时间: 2022-12-09 15:12:25 大小:36.09 GB 文件数量:2 热度:5 最近下载:2025-02-05 03:50:01
    {"The.Personals.1998.Blu-ray.1080p.MPEG-2.LPCM.2.0.iso": 22270902272}
创建时间: 2022-12-08 22:22:03 大小:20.74 GB 文件数量:1 热度:13 最近下载:2025-09-17 12:33:11
    ... .Britain.1969.Blu-ray.1080P.MPEG-2.DTS-HD.MA5.1.iso ...
创建时间: 2022-12-07 17:57:14 大小:20.52 GB 文件数量:7 热度:25 最近下载:2025-10-05 21:59:02
    {"RARBG.com.mp4": 1016764, "RARBG.com.txt": 34, "Kicking.Off.2015.1080p.BluRay.REMUX.MPEG-2.DTS-HD.MA.5.1-RARBG.mkv": 14579090849, "Kicking.Off.2015.1080p.BluRay.REMUX.MPEG-2.DTS-HD.MA.5.1-RARBG.nfo": 5334}
创建时间: 2022-12-07 15:20:29 大小:13.58 GB 文件数量:4 热度:4 最近下载:2025-03-13 06:34:02
    {"Afterwards 2008 BluRay REMUX 1080p MPEG-2 DTS-HD MA 5.1-CHD.ts": 18018393572}
创建时间: 2022-12-07 07:34:16 大小:16.78 GB 文件数量:1 热度:6 最近下载:2025-09-18 16:44:02
    {"MD5.txt": 113, "Sky.Captain.and.the.World.of.Tomorrow.2004.MPEG-2.BluRay.1080p.DTS.5.1.iso": 24655036416}
创建时间: 2022-12-05 23:36:11 大小:22.96 GB 文件数量:2 热度:6 最近下载:2025-03-03 00:56:01
    ... .2005.Blu-ray.CEE.1080p.MPEG-2.TrueHD.5.1-Dolala@CHDBits ... .2005.Blu-ray.CEE.1080p.MPEG-2.TrueHD.5.1-Dolala@CHDBits ...
创建时间: 2022-12-01 06:43:19 大小:26.6 GB 文件数量:6 热度:10 最近下载:2025-02-03 06:17:01
    ... .1984.Bluray.1080p.DTSHD-MA.MPEG-2.Remux-Framestor": {"Terminator.1984 ... .1984.Bluray.1080p.DTSHD-MA.MPEG-2.Remux-Framestor.mkv": 16737996445, ... .1984.Bluray.1080p.DTSHD-MA.MPEG-2.Remux-Framestor.smi": 61386}, ... .Bluray.1080p.DTSHD-MA.MPEG-2.VC-1.Remux-FraMeSToR. ...
创建时间: 2022-11-28 22:16:40 大小:84.86 GB 文件数量:14 热度:13 最近下载:2025-04-09 23:45:02
    {"Extra Time.mpg": 1518381060, "UEFA Cup - Getafe v Bayern - 10 Apr 2008 - MPEG-2.nfo": 3975}
创建时间: 2022-11-28 07:02:55 大小:1.41 GB 文件数量:2 热度:8 最近下载:2025-09-18 23:46:04
    ... .Baby.2004.Blu-ray.1080p.MPEG-2.DTS-HD.MA.5.1 ... .Baby.2004.Blu-ray.1080p.MPEG-2.DTS-HD.MA.5.1 ...
创建时间: 2022-11-27 18:28:42 大小:45.88 GB 文件数量:6 热度:22 最近下载:2025-08-11 23:40:01
    ... , "main.1.aca": 5036560, "main.2.aca": 5049163, "main.3.aca ... , "main.1.aca": 5036560, "main.2.aca": 5049163, "main.3.aca ...
创建时间: 2022-11-27 06:42:04 大小:16.3 GB 文件数量:89 热度:8 最近下载:2025-02-21 05:03:03
    ... .Fastest.Indian.2005.1080p.BluRay.MPEG-2.DTS-HD.HR.5.1 ...
创建时间: 2022-11-20 05:26:00 大小:23.15 GB 文件数量:8 热度:15 最近下载:2025-10-07 01:20:01
    ... .2012.Round05.Denmark.Copenhagen.Eurosport2.MPEG-2.Russian-ashu.ts": 1783948544, "Speedway ... .Round07.Croatia.Donji.Kraljevec.Eurosport2.MPEG-2.Russian-ashu.ts": 1758539028, " ... Round06.Poland.Gorzow.Wielkopolski.Eurosport2.MPEG-2.Russian-ashu.ts": 1757396928}
创建时间: 2022-11-19 05:55:57 大小:4.94 GB 文件数量:3 热度:7 最近下载:2025-04-03 08:28:03
    ... .Booth.2002.Blu-ray.1080p.MPEG-2.DTS-HD.MA5.1.iso ...
创建时间: 2022-11-18 18:27:31 大小:18.23 GB 文件数量:7 热度:47 最近下载:2025-10-15 11:20:04
    {"Elisha Cuthbert - Lopez Tonight 27-01-2010 HDTV 1080i MPEG-2 DD5.1-EbP.ts": 649507288}
创建时间: 2022-11-17 23:11:19 大小:619.42 MB 文件数量:1 热度:8 最近下载:2025-01-15 10:49:11
    ... Baby 2004 Blu-ray 1080p MPEG-2 DTS-HD MA 5.1 ...
创建时间: 2022-11-10 15:24:01 大小:30.36 GB 文件数量:3 热度:24 最近下载:2025-08-04 15:24:06
    ... .Round15.Japan.PreRace.BBC.MPEG-2.English.mpg": 1879957508, "Formula1 ... 2009.Round15.Japan.PreRace.Sport.MPEG-2.Russian.mpg": 201261056, " ... 2009.Round15.Japan.Race.BBC.MPEG-2.Russian.English.mpg": 4575549440 ... Japan.Quali.Build-Up.BBC.MPEG-2.English.mpg": 1850920964, ...
创建时间: 2022-10-31 20:54:46 大小:11.23 GB 文件数量:5 热度:15 最近下载:2025-04-23 02:36:02
    {"BDMV": {"BACKUP": {"CLIPINF": {"00000.clpi": 28992, "00001.clpi": 3256, "00002.clpi": 1412, "00003.clpi": 1040, "00004.clpi": 1616, "00005.clpi": 2268, "00006.clpi": 15648, "00007.clpi": 2096, "00008.clpi": 2136, "00009.clpi": 2032, "00014.clpi": 512, " ...
创建时间: 2022-10-27 06:29:07 大小:23.15 GB 文件数量:97 热度:9 最近下载:2025-09-18 23:14:02
    ... .Were.Soldiers.2002.1080p.BluRay.MPEG-2.DTS-ES.6.1-HDHome ...
创建时间: 2022-10-12 23:43:38 大小:34.23 GB 文件数量:8 热度:58 最近下载:2025-10-16 14:55:02